Location: Quaker Farms
(41.4276°N, 73.1557°W)
Time: 19:25:19
(UTC+00:00)

S-56A Canister/Altair - Pass Details

Date: 21 June 2021
Orbit: 631 x 2501 km, 38.9° (Epoch: 30 July)

Event Time Altitude Azimuth Distance (km) Brightness Sun altitude
Rises 16:00:16 0° 263° (W) 3,695 10.9 68.7°
Reaches altitude 10° 16:05:18 10° 229° (SW) 3,167 10.9 69.3°
Maximum altitude 16:07:16 11° 214° (SW) 3,253 11.0 69.5°
Drops below altitude 10° 16:09:24 10° 200° (SSW) 3,515 11.2 69.7°
Sets 16:16:24 0° 170° (S) 5,065 12.0 70.3°
